Location: Newark
(41.0400°S, 62.7845°W)
Time: 16:29:43
(UTC+00:00)

N. Korean satellite - Pass Details

Date: 26 October 2021
Orbit: 447 x 495 km, 97.3° (Epoch: 30 November)

Event Time Altitude Azimuth Distance (km) Brightness Sun altitude
Rises 08:06:50 0° 33° (NNE) 2,499 10.3 -11.1°
Reaches altitude 10° 08:09:00 10° 42° (NE) 1,623 9.4 -10.7°
Maximum altitude 08:12:09 33° 107° (ESE) 805 8.5 -10.2°
Drops below altitude 10° 08:15:19 10° 173° (S) 1,627 9.7 -9.7°
Sets 08:17:29 0° 182° (S) 2,505 10.5 -9.3°
